Hillsboro, TX

7:24 PM CDT on September 23, 2017 (GMT -0500)
Hillsboro

Weather History for KINJ - January, 2013

Change the Weather History Date:

Saturday, January 19, 2013

  Actual Average (KACT) Record (KACT)
Temperature  
Mean Temperature 50 °F -  
Max Temperature 62 °F 58 °F 84 °F (1952)
Min Temperature 37 °F 36 °F 7 °F (1940)
Degree Days  
Heating Degree Days 16    
Moisture  
Dew Point 41 °F    
Average Humidity 68    
Maximum Humidity 93    
Minimum Humidity 48    
Precipitation  
Precipitation 0.00 in - - ()
Sea Level Pressure  
Sea Level Pressure 30.22 in    
Wind  
Wind Speed 10 mph (SSE)    
Max Wind Speed 16 mph    
Max Gust Speed 22 mph    
Visibility 10 miles    
Events      
Averages and records for this station are not official NWS values.
T = Trace of Precipitation, MM = Missing Value Source: NWS Daily Summary

Daily Weather History Graph

Daily Weather History Graph

Search for Another Location

Airport or City:

Trip Planner

Search our weather history database for the weather conditions in past years. The results will help you decide how hot, cold, wet, or windy it might be!

Date:

Astronomy

Jan. 19, 2013 Rise Set
Actual Time 7:28 AM CST 5:50 PM CST
Civil Twilight 7:02 AM CST 6:16 PM CST
Nautical Twilight 6:32 AM CST 6:46 PM CST
Astronomical Twilight 6:02 AM CST 7:15 PM CST
Moon 12:13 PM CST (1/19) 1:08 AM CST (1/19)
Length of Visible Light 11h 14m
Length of Day
10h 22m
First Quarter, 57% of the Moon is Illuminated
Jan 19
First Quarter
Jan 26
Full
Feb 3
Last Quarter
Feb 10
New
Feb 17
First Quarter

Hourly Weather History & Observations

Time (CST) Temp. Windchill Dew Point Humidity Pressure Visibility Wind Dir Wind Speed Gust Speed Precip Events Conditions
12:15 AM 48.2 °F - 33.8 °F 58% 30.28 in 10.0 mi SSE 11.5 mph - N/A   Clear
12:35 AM 48.2 °F - 33.8 °F 58% 30.28 in 10.0 mi SSE 10.4 mph - N/A   Clear
12:55 AM 46.4 °F 41.5 °F 33.8 °F 62% 30.28 in 10.0 mi SSE 10.4 mph - N/A   Clear
1:15 AM 46.4 °F 42.4 °F 33.8 °F 62% 30.28 in 10.0 mi SSE 8.1 mph - N/A   Clear
1:35 AM 44.6 °F 39.7 °F 33.8 °F 66% 30.28 in 10.0 mi South 9.2 mph - N/A   Clear
1:55 AM 44.6 °F 39.2 °F 33.8 °F 66% 30.27 in 10.0 mi SSE 10.4 mph - N/A   Clear
2:15 AM 44.6 °F 38.1 °F 33.8 °F 66% 30.27 in 10.0 mi SSE 13.8 mph - N/A   Clear
2:35 AM 44.6 °F 38.1 °F 35.6 °F 71% 30.26 in 10.0 mi SSE 13.8 mph 18.4 mph N/A   Clear
2:55 AM 44.6 °F 38.1 °F 35.6 °F 71% 30.26 in 10.0 mi South 13.8 mph 19.6 mph N/A   Clear
3:15 AM 44.6 °F 38.1 °F 35.6 °F 71% 30.26 in 10.0 mi South 13.8 mph - N/A   Clear
3:35 AM 42.8 °F 37.5 °F 35.6 °F 76% 30.26 in 10.0 mi South 9.2 mph - N/A   Clear
3:55 AM 42.8 °F 38.0 °F 35.6 °F 76% 30.26 in 10.0 mi South 8.1 mph - N/A   Clear
4:15 AM 41.0 °F 35.8 °F 35.6 °F 81% 30.26 in 10.0 mi South 8.1 mph - N/A   Clear
4:35 AM 39.2 °F 35.9 °F 33.8 °F 81% 30.26 in 10.0 mi South 4.6 mph - N/A   Clear
4:55 AM 37.4 °F 33.8 °F 33.8 °F 87% 30.25 in 10.0 mi SSE 4.6 mph - N/A   Clear
5:15 AM 39.2 °F 35.0 °F 35.6 °F 87% 30.25 in 10.0 mi SE 5.8 mph - N/A   Clear
5:35 AM 39.2 °F 35.0 °F 35.6 °F 87% 30.25 in 10.0 mi SE 5.8 mph - N/A   Clear
5:55 AM 41.0 °F 36.4 °F 35.6 °F 81% 30.25 in 10.0 mi SE 6.9 mph - N/A   Clear
7:15 AM 37.4 °F 32.1 °F 35.6 °F 93% 30.26 in 7.0 mi SSE 6.9 mph - N/A   Clear
7:55 AM 37.4 °F 32.1 °F 35.6 °F 93% 30.26 in 5.0 mi SSE 6.9 mph - N/A   Clear
8:15 AM 39.2 °F 35.0 °F 37.4 °F 93% 30.26 in 5.0 mi South 5.8 mph - N/A   Clear
8:35 AM 42.8 °F 38.6 °F 41.0 °F 93% 30.27 in 7.0 mi South 6.9 mph - N/A   Clear
9:55 AM 50.0 °F - 44.6 °F 82% 30.29 in 10.0 mi South 13.8 mph - N/A   Clear
10:15 AM 51.8 °F - 44.6 °F 76% 30.29 in 10.0 mi South 13.8 mph - N/A   Clear
10:35 AM 53.6 °F - 44.6 °F 72% 30.29 in 10.0 mi South 12.7 mph - N/A   Clear
10:55 AM 55.4 °F - 44.6 °F 67% 30.28 in 10.0 mi South 13.8 mph - N/A   Clear
11:15 AM 55.4 °F - 44.6 °F 67% 30.28 in 10.0 mi South 13.8 mph - N/A   Clear
11:35 AM 55.4 °F - 44.6 °F 67% 30.26 in 10.0 mi South 13.8 mph 18.4 mph N/A   Clear
11:55 AM 55.4 °F - 44.6 °F 67% 30.25 in 10.0 mi South 16.1 mph - N/A   Clear
12:15 PM 55.4 °F - 44.6 °F 67% 30.24 in 10.0 mi South 13.8 mph - N/A   Clear
12:35 PM 59.0 °F - 44.6 °F 59% 30.22 in 10.0 mi South 16.1 mph 21.9 mph N/A   Clear
12:55 PM 59.0 °F - 44.6 °F 59% 30.20 in 10.0 mi South 15.0 mph - N/A   Clear
1:35 PM 59.0 °F - 44.6 °F 59% 30.18 in 10.0 mi South 15.0 mph - N/A   Clear
1:55 PM 59.0 °F - 44.6 °F 59% 30.18 in 10.0 mi South 13.8 mph - N/A   Clear
2:15 PM 60.8 °F - 44.6 °F 55% 30.17 in 10.0 mi South 11.5 mph 17.3 mph N/A   Clear
2:35 PM 60.8 °F - 44.6 °F 55% 30.17 in 10.0 mi South 12.7 mph - N/A   Clear
2:55 PM 59.0 °F - 44.6 °F 59% 30.16 in 10.0 mi South 10.4 mph - N/A   Clear
3:15 PM 60.8 °F - 44.6 °F 55% 30.16 in 10.0 mi South 10.4 mph - N/A   Clear
3:35 PM 62.6 °F - 44.6 °F 52% 30.15 in 10.0 mi South 13.8 mph 18.4 mph N/A   Clear
3:55 PM 62.6 °F - 44.6 °F 52% 30.16 in 10.0 mi SSE 12.7 mph - N/A   Clear
4:15 PM 62.6 °F - 44.6 °F 52% 30.16 in 10.0 mi SSE 8.1 mph - N/A   Clear
4:35 PM 62.6 °F - 44.6 °F 52% 30.16 in 10.0 mi SSE 10.4 mph - N/A   Clear
4:55 PM 62.6 °F - 42.8 °F 48% 30.16 in 10.0 mi SSE 6.9 mph - N/A   Clear
5:15 PM 60.8 °F - 44.6 °F 55% 30.16 in 10.0 mi SE 9.2 mph - N/A   Clear
5:35 PM 59.0 °F - 42.8 °F 55% 30.16 in 10.0 mi SE 9.2 mph - N/A   Clear
5:55 PM 57.2 °F - 42.8 °F 59% 30.16 in 10.0 mi ESE 6.9 mph - N/A   Clear
6:15 PM 55.4 °F - 42.8 °F 63% 30.16 in 10.0 mi ESE 8.1 mph - N/A   Clear
6:35 PM 55.4 °F - 42.8 °F 63% 30.17 in 10.0 mi ESE 6.9 mph - N/A   Clear
6:55 PM 53.6 °F - 42.8 °F 67% 30.18 in 10.0 mi ESE 6.9 mph - N/A   Clear
7:15 PM 53.6 °F - 42.8 °F 67% 30.18 in 10.0 mi ESE 6.9 mph - N/A   Clear
7:35 PM 53.6 °F - 42.8 °F 67% 30.18 in 10.0 mi SE 9.2 mph - N/A   Clear
7:55 PM 53.6 °F - 42.8 °F 67% 30.18 in 10.0 mi ESE 6.9 mph - N/A   Clear
8:15 PM 51.8 °F - 42.8 °F 71% 30.18 in 10.0 mi SE 6.9 mph - N/A   Clear
8:35 PM 51.8 °F - 42.8 °F 71% 30.19 in 10.0 mi SE 8.1 mph - N/A   Clear
8:55 PM 53.6 °F - 42.8 °F 67% 30.20 in 10.0 mi SE 6.9 mph - N/A   Clear
9:15 PM 53.6 °F - 42.8 °F 67% 30.20 in 10.0 mi ESE 8.1 mph - N/A   Clear
9:35 PM 53.6 °F - 42.8 °F 67% 30.20 in 10.0 mi SE 8.1 mph - N/A   Clear
9:55 PM 51.8 °F - 41.0 °F 67% 30.20 in 10.0 mi ESE 8.1 mph - N/A   Clear
10:15 PM 51.8 °F - 41.0 °F 67% 30.21 in 10.0 mi ESE 8.1 mph - N/A   Clear
10:35 PM 51.8 °F - 41.0 °F 67% 30.22 in 10.0 mi ESE 6.9 mph - N/A   Clear
10:55 PM 50.0 °F - 41.0 °F 71% 30.22 in 10.0 mi SE 4.6 mph - N/A   Clear
11:15 PM 50.0 °F - 41.0 °F 71% 30.23 in 10.0 mi SE 6.9 mph - N/A   Clear
11:35 PM 50.0 °F - 41.0 °F 71% 30.23 in 10.0 mi SSE 4.6 mph - N/A   Clear
11:55 PM 50.0 °F - 41.0 °F 71% 30.22 in 10.0 mi SE 5.8 mph - N/A   Clear